Regional Weather Roundup
Issued by NWS Charleston, WV

Home | Current Version | Previous Version | Graphics & Text | Print | Product List | Glossary On
Versions: 1 2 3 4 5 6 7 8 9 10 11 12 13 14 15 16 17 18 19 20 21 22 23 24 25 26 27 28 29 30 31 32 33 34 35 36 37 38 39 40 41 42 43 44 45 46 47 48 49 50
000
ASUS41 KRLX 200410
RWRRLX
West Virginia Regional Weather Roundup
National Weather Service Charleston WV
Issued by National Weather Service Pittsburgh PA
1100 PM EST SUN NOV 19 2017

Note: "fair" indicates few or no clouds below 12,000 feet with no
significant weather and/or obstructions to visibility.

WVZ003-200500-
Northern Panhandle of West Virginia

CITY           SKY/WX    TMP DP  RH WIND       PRES   REMARKS
WHEELING       CLOUDY    32  21  64 W15G31    30.02R WCI  22
$$

WVZ009-200500-
Northwest West Virginia

CITY           SKY/WX    TMP DP  RH WIND       PRES   REMARKS
PARKERSBURG    PTCLDY    33  20  58 W16G31    30.14R WCI  23
$$

WVZ006-200500-
Western West Virginia

CITY           SKY/WX    TMP DP  RH WIND       PRES   REMARKS
HUNTINGTON     CLEAR     34  24  67 SW8       30.17R WCI  27
$$

WVZ015-200500-
West Central West Virginia

CITY           SKY/WX    TMP DP  RH WIND       PRES   REMARKS
CHARLESTON     MOCLDY    37  23  56 W9G22     30.14R
$$

WVZ031-200500-
North Central West Virginia

CITY           SKY/WX    TMP DP  RH WIND       PRES   REMARKS
CLARKSBURG     CLOUDY    35  22  58 W12       30.05R WCI  27
MORGANTOWN     CLOUDY    35  22  58 W6        30.03R WCI  30
$$

WVZ035-042-200500-
South Central West Virginia

CITY           SKY/WX    TMP DP  RH WIND       PRES   REMARKS
BECKLEY        MOCLDY    30  21  69 NW15      30.07R WCI  19
BLUEFIELD      CLOUDY    29  21  72 W9G20     30.06S WCI  20
$$

WVZ045-200500-
Greenbrier Valley of West Virginia

CITY           SKY/WX    TMP DP  RH WIND       PRES   REMARKS
LEWISBURG      MOCLDY    32  21  63 W9G23     30.05R WCI  24
$$

WVZ047-200500-
Northern Mountains of West Virginia

CITY           SKY/WX    TMP DP  RH WIND       PRES   REMARKS
ELKINS         CLOUDY    32  21  64 W10       30.03R WCI  24
$$

WVZ052-200500-
Eastern Panhandle of West Virginia

CITY           SKY/WX    TMP DP  RH WIND       PRES   REMARKS
MARTINSBURG    PTCLDY    39  25  57 NW21G31   29.94R
PETERSBURG     CLOUDY    38  20  50 W12G18    30.00R
$$




USA.gov is the U.S. government's official web portal to all federal, state and local government web resources and services.